Location: Andreash�tte
(50.6099°N, 18.4777°E)
Time: 13:10:30
(UTC+00:00)

Daily predictions for brighter satellites

Satellite Brightness Start Highest point End
(mag) Time Altitude Azimuth Time Altitude Azimuth Time Altitude Azimuth
Cosmos 1818 3.7 15:56:54 10° SW 16:02:21 90° NW 16:07:52 10° NE
Cosmos 1844 3.8 15:58:13 10° SSW 16:03:50 65° ESE 16:09:33 10° NE
YAOGAN 1 3.9 16:01:24 10° ESE 16:04:22 18° ENE 16:07:21 10° NNE
Cosmos 1892 Rocket 3.6 16:00:36 10° S 16:04:56 88° WNW 16:09:18 10° N
ATLAS 2AS CENTAUR R/B 4.0 15:58:06 10° W 16:05:20 37° NNW 16:12:18 10° NE
H-2A R/B 2.7 16:02:28 10° SSE 16:06:39 83° WSW 16:11:02 10° NNW
Meteor 2-1 Rocket 4.1 16:04:39 10° N 16:10:14 75° ENE 16:15:43 10° SSE
Cosmos 1703 4.0 16:09:29 10° SSE 16:12:58 32° E 16:16:28 10° NNE
Cosmos 2227 Rocket 4.4 16:10:50 10° NW 16:13:06 12° NNW 16:15:22 10° N
Cosmos 1812 Rocket 4.0 16:09:32 10° N 16:13:40 39° ENE 16:17:45 10° SE
ATLAS 5 CENTAUR R/B 3.2 16:10:21 10° W 16:14:03 26° NNW 16:18:13 10° NE
X-37B 2.3 16:12:21 10° WSW 16:15:10 29° S 16:18:00 10° ESE
ISS -3.7 16:14:10 10° W 16:17:33 81° N 16:20:51 11° ENE
Okean O Rocket 1.7 16:14:43 10° SSE 16:19:09 89° WSW 16:23:35 10° NNW
Iridium 4 Rocket 4.2 16:14:29 10° NNE 16:19:22 33° ENE 16:23:52 10° SE
CZ-4C R/B 3.8 16:15:12 10° WNW 16:20:09 28° N 16:25:57 10° NE
ADEOS Rocket 4.2 16:15:51 10° N 16:21:13 38° WNW 16:26:16 10° SW
Meteor 2-13 Rocket 4.5 16:16:15 10° S 16:22:20 70° E 16:28:29 10° NNE
SKYMED 2 4.3 16:20:19 10° NNE 16:24:16 33° E 16:28:13 10° SSE
CZ-4 R/B 2.2 16:21:30 10° SE 16:24:55 27° ENE 16:28:17 10° N
USA 234 3.7 16:18:49 10° ENE 16:25:11 55° N 16:31:32 10° W
ERS-2 3.7 16:24:18 10° NE 16:26:48 17° E 16:29:17 10° SE
Cosmos 2278 Rocket 3.1 16:25:40 10° SSE 16:30:23 28° ESE 16:35:07 10° NE
Okean-O 3.3 16:27:01 10° SE 16:30:55 31° ENE 16:34:51 10° N
CZ-2C R/B 3.3 16:30:33 10° SSE 16:35:59 60° ENE 16:41:40 10° N
NOSS 2-1 (E) 3.1 16:33:21 10° SSW 16:36:36 54° SE 16:39:26 14° NE
Cosmos 1346 Rocket 4.0 16:33:55 10° SE 16:36:55 21° E 16:39:37 12° NE
Cosmos 1340 2.9 16:33:24 10° S 16:37:00 46° E 16:40:37 10° NNE
COSMOS 2455 3.7 16:31:38 10° WSW 16:37:27 47° NW 16:43:18 10° NNE
CZ-4B R/B 4.0 16:32:09 10° S 16:37:41 59° WSW 16:43:18 10° NNW
Aureole 2 Rocket 4.5 16:36:52 10° WSW 16:39:21 22° NW 16:41:52 10° N
SMAP 4.5 16:37:43 10° S 16:42:08 42° W 16:46:35 10° NNW
Cosmos 1455 3.5 16:43:08 10° NNW 16:46:49 44° W 16:50:29 10° SSW
Cosmos 405 2.9 16:43:52 10° N 16:47:24 61° ENE 16:50:52 10° SSE
ARGOS 3.7 16:44:21 10° SE 16:49:12 36° ENE 16:54:05 10° N
Cosmos 1626 Rocket 3.6 16:46:50 10° S 16:51:15 84° W 16:55:44 10° N
Cosmos 1092 Rocket 3.9 16:45:55 10° S 16:52:03 73° E 16:58:11 10° NNE
Cosmos 1869 4.4 16:50:34 10° NNE 16:53:42 22° ENE 16:54:30 21° E
Cosmos 2263 Rocket 4.3 16:50:16 10° W 16:54:19 20° NW 16:58:22 10° N
Cosmos 1898 Rocket 3.4 16:49:34 10° SSW 16:54:49 82° ESE 17:00:04 10° NNE
CZ-2C R/B 3.9 16:52:21 12° NE 16:56:05 21° E 17:00:17 10° SE
TELKOM 3 3.1 16:55:37 10° W 16:57:46 57° S 16:58:27 35° SE
Nadezhda 4 Rocket 4.4 16:54:46 10° SSW 17:00:56 65° WNW 17:07:04 10° N
CZ-4B R/B 1.2 17:00:06 10° NNE 17:03:27 90° SSE 17:06:40 10° SSW
Cosmos 1328 3.7 16:59:29 10° S 17:03:28 85° E 17:07:27 10° N
Cosmos 1048 Rocket 4.3 16:59:53 10° NNW 17:04:47 42° ENE 17:09:13 12° SE
MOS 1 Rocket 3.0 17:00:51 10° NNE 17:05:08 67° ESE 17:09:27 10° S
Meteor 2-15 4.4 16:59:16 10° N 17:05:28 71° ENE 17:11:35 10° SSE
CZ-2D R/B 3.5 17:02:12 10° S 17:06:01 70° WSW 17:09:51 10° NNW
Cosmos-2242 2.9 17:04:40 10° N 17:08:59 73° ENE 17:13:18 10° SSE
Meteor 1-11 4.2 17:04:13 10° S 17:09:46 61° E 17:15:19 10° NNE
COSMO-SKYMED 1 2.6 17:08:07 10° NNE 17:12:30 86° WNW 17:16:51 10° SSW
BREEZE-M DEB (TANK) 2.3 17:14:32 10° W 17:16:40 50° SSW 17:17:14 38° SE
Cosmos 1937 Rocket 3.5 17:12:09 10° SSW 17:17:29 89° WNW 17:22:51 10° NNE
Cosmos 1758 Rocket 3.5 17:13:28 10° S 17:17:56 78° E 17:22:28 10° NNE
Cosmos 2098 Rocket 4.3 17:11:22 10° S 17:18:47 78° E 17:25:52 10° NNE
USA 290 3.0 17:18:17 10° NW 17:21:24 51° WSW 17:24:30 10° S
CSL-04 Debris 4.1 17:17:26 10° SSE 17:22:44 63° ENE 17:28:05 10° N
SL-08 RB Rocket 3.9 17:21:13 19° SE 17:24:06 44° ENE 17:28:21 10° N
Cosmos 1833 Rocket 3.1 17:19:52 10° NW 17:25:27 64° WSW 17:30:59 10° SSE
NOSS 2-1 (C) 3.7 17:22:34 10° WSW 17:25:47 48° NW 17:27:19 28° NNE
H-2A R/B 2.0 17:23:16 10° SSE 17:28:22 89° WSW 17:33:39 10° NNW
Cosmos 2221 3.9 17:24:31 10° N 17:26:47 24° NNE 17:26:47 24° NNE
H-2A R/B 4.0 17:25:38 10° N 17:29:26 29° WNW 17:33:08 10° WSW
NOSS 2-2 (C) 4.4 17:24:55 10° NW 17:29:48 53° NE 17:32:40 31° E
Cosmos 2266 Rocket 4.3 17:24:47 10° SSE 17:30:27 38° E 17:36:02 10° NNE
Helios 1A Rocket 2.8 17:26:47 10° SSE 17:30:55 83° ENE 17:35:06 10° NNW
NOSS 2-1 (D) 3.9 17:28:34 10° WSW 17:31:46 43° NW 17:33:06 29° NNE
Cosmos 2298 Rocket 4.4 17:27:01 10° S 17:31:57 40° ESE 17:32:59 36° ENE
Cosmos 389 Rocket 3.5 17:29:56 10° N 17:32:01 31° NNE 17:32:01 31° NNE
CZ-3B R/B 3.3 17:32:56 10° WNW 17:35:47 43° SSW 17:44:07 10° SE
Cosmos 44 4.4 17:31:20 10° WSW 17:36:03 43° NW 17:39:31 19° NNE
Cosmos 2026 Rocket 4.2 17:29:56 10° SSW 17:36:05 73° WNW 17:42:23 10° N
Cosmos 1417 Rocket 4.4 17:32:09 10° N 17:38:25 84° E 17:44:43 10° S
Meteor 2-15 Rocket 4.5 17:32:21 10° NNW 17:38:33 85° W 17:44:42 10° S
SJ 16-02 3.8 17:35:38 10° W 17:38:51 20° NW 17:42:05 10° N
YAOGAN 1 3.0 17:35:45 10° S 17:40:02 64° WSW 17:44:22 10° NNW
Cosmos 1689 Rocket 3.3 17:41:34 33° SSW 17:41:34 33° SSW 17:43:17 10° SSW
Cosmos 1553 Rocket 4.1 17:35:09 10° N 17:41:36 82° W 17:47:54 10° S
SJ-11-01 4.4 17:37:09 10° S 17:41:49 74° WSW 17:46:32 10° NNW
Aureole 3 Rocket 4.4 17:39:27 10° NNW 17:42:22 32° W 17:45:52 10° SSW
In-Cosmos 22 Rocket 4.3 17:37:14 10° SSE 17:42:46 51° E 17:47:27 14° NNE
Cosmos 1844 Rocket 4.5 17:39:41 10° W 17:44:28 27° NW 17:49:16 10° NNE
COSMOS 2406 4.5 17:39:13 10° NW 17:44:39 42° WSW 17:50:01 10° S
Cosmos 2082 Rocket 2.3 17:39:35 10° NNW 17:45:20 79° WSW 17:51:01 10° SSE
HJ-1C 3.5 17:47:04 54° SSW 17:47:41 73° W 17:51:04 10° NNW
Meteor 1-27 4.4 17:42:54 10° NNW 17:48:31 72° W 17:54:02 10° S
Cosmos 1825 Rocket 3.8 17:45:27 10° SSW 17:49:50 70° WNW 17:54:17 10° N
X-37B 3.0 17:49:09 10° WSW 17:51:15 16° SSW 17:51:37 16° SSW
deb Kosmos-1763 4.5 17:48:17 10° NNW 17:51:51 59° WSW 17:52:52 40° SSW
NOSS 2-2 (E) 4.3 17:47:51 10° NW 17:53:07 78° NE 17:56:04 36° SE
ISS -3.1 17:51:06 10° WNW 17:53:50 55° WNW 17:53:50 55° WNW
Meteor 2-21 4.4 17:50:28 10° SSE 17:56:22 55° E 18:02:21 10° NNE
MetOp-A 4.1 17:56:26 54° E 17:56:56 56° ENE 18:02:11 10° N
ATLAS 2AS CENTAUR R/B 3.9 17:51:37 10° NW 17:58:25 31° N 18:00:55 26° NE
CZ-4 R/B 3.1 17:56:13 10° SSW 17:59:52 33° W 18:03:28 10° NNW
Cosmos 2315 Rocket 4.0 17:53:55 10° N 18:00:04 56° ENE 18:01:36 45° ESE
ATLAS 5 CENTAUR R/B 3.7 17:56:48 10° NW 18:00:17 19° N 18:00:57 19° NNE
ERS-2 3.2 17:58:38 23° N 18:00:33 44° WNW 18:04:01 10° SW
Cosmos 883 Rocket 4.3 17:54:57 10° N 18:01:11 67° ENE 18:05:20 21° SSE
CSL-04 Rocket 3.9 17:58:35 10° S 18:04:01 70° WSW 18:09:35 10° NNW
Meteor 2-14 Rocket 4.3 17:58:29 10° S 18:04:25 60° E 18:10:26 10° NNE
Okean-O 4.2 18:03:17 10° SSW 18:07:21 35° W 18:11:27 10° NNW
USA 234 3.5 18:05:52 42° ENE 18:07:42 55° N 18:14:02 10° WNW
S3M 4.1 18:01:58 10° NNW 18:08:04 75° W 18:14:11 10° S
IRS-1A Rocket 4.3 18:08:25 58° ENE 18:08:35 58° ENE 18:14:20 10° N
Ariane Rocket 3.8 18:11:25 38° NNE 18:11:25 38° NNE 18:14:46 10° N
CZ-4C R/B 3.7 18:05:00 10° NW 18:10:38 31° NNE 18:11:46 30° NE
Cosmos 1346 Rocket 4.1 18:09:22 10° SW 18:13:03 38° WNW 18:15:12 21° NNW
Cosmos 1655 Rocket 3.9 18:06:56 10° S 18:13:10 89° E 18:19:26 10° N
Cosmos 2278 Rocket 2.6 18:08:30 10° SW 18:14:07 60° NW 18:17:11 27° NNE
Cosmos 1953 Rocket 4.1 18:12:05 10° SSW 18:16:21 56° WNW 18:17:58 34° NNW
USA 281 4.1 18:17:58 32° NNE 18:17:58 32° NNE 18:22:55 10° NNW
Cosmos 2292 Rocket 4.1 18:16:33 10° SSW 18:20:41 53° WSW 18:20:41 53° WSW
Cosmos 2297 Rocket 4.5 18:22:20 10° N 18:23:18 11° NNE 18:23:18 11° NNE
Cosmos 44 Rocket 3.7 18:19:24 10° SW 18:23:19 57° SSW 18:23:19 57° SSW
ARGOS 4.3 18:24:22 10° SSW 18:29:26 41° W 18:34:32 10° NNW
NOSS 2-2 (D) 4.4 18:27:16 10° NW 18:32:34 78° SW 18:33:29 65° SSE
CZ-2C R/B 2.9 18:33:45 27° N 18:36:54 72° WNW 18:42:29 10° SSW
Cosmos 909 Rocket 4.2 18:54:18 10° NW 19:00:09 75° NNW 19:00:09 75° NNW
USA 234 4.3 19:53:12 39° WNW 19:53:12 39° WNW 19:57:05 10° WNW
ATLAS 2AS CENTAUR R/B 4.0 19:43:39 10° NW 19:48:21 36° NNW 19:48:21 36° NNW
CZ-4C R/B 4.1 19:53:37 10° NW 19:56:58 32° NNW 19:56:58 32° NNW
